World > North America > United States > Washington

Blaine, Washington Regional Weather

Lat: 48.99N, Lon: 122.76W
Wx Zone: WAZ503
Feedback

Blaine, WA Regional Weather

Expires:201909160200;;852168
ASUS46 KSEW 160110
RWRWA 

WASHINGTON REGIONAL WEATHER ROUNDUP
NATIONAL WEATHER SERVICE SEATTLE WA
600 PM PDT SUN SEP 15 2019

NOTE:"FAIR" INDICATES FEW OR NO CLOUDS BELOW 12,000 FEET WITH NO 
SIGNIFICANT WEATHER AND/OR OBSTRUCTIONS TO VISIBILITY.


WAZ001-503-506-510-514-515-160200-
NORTH INTERIOR
  
CITY           SKY/WX    TMP DP  RH WIND       PRES   REMARKS
BELLINGHAM     PTSUNNY   62  52  69 S13       29.73F                  
FRIDAY HARBOR  CLOUDY    59  54  83 E3        29.74S                  
EASTSOUND      PTSUNNY   61  55  82 S8        29.72S                  
PORT ANGELES   CLOUDY    60  55  83 E7        29.74R                  
EDIZ HOOK      LGT RAIN  56  55  93 S8        29.73S                  
PORT TOWNSEND  CLOUDY    61  55  82 N8        29.73R                  
NAS WHIDBEY    CLOUDY    63  54  72 SE8       29.77S                  
ARLINGTON      CLOUDY    60  54  80 SE7       29.75S                  
BURLINGTON     CLOUDY    63  55  77 SE5       29.75S                  
$$
 

SKY/WX - Weather  TMP - Temperature  DP - Dew Point  RH - Relative Humidity
WIND - Wind Direction/Speed PRES - Barometric Pressure VSB - Visibility
WCI - Wind Chill Index E13G22 Wind - East Wind 13 mph/Gusts of 22 mph